This is the latest recevied weather packets stored in our database for station/object DM4XI-13. If no packets are shown the sender has not sent any weather packets the latest 10 day(s).
| Time | Temp. | Humidity | Pressure | Rain* | Wind** | Luminosity | Snow |
|---|---|---|---|---|---|---|---|
| 1778263999 | 13.33° C | 63% | 1014.8 hPa | 0 mm | 0.45 m/s, 232° | 13 W/m² | - |
| 1778263938 | 13.33° C | 63% | 1014.6 hPa | 0 mm | 0.45 m/s, 269° | 14 W/m² | - |
| 1778263877 | 13.33° C | 63% | 1014.7 hPa | 0 mm | 0 m/s | 14 W/m² | - |
| 1778263817 | 13.33° C | 63% | 1014.4 hPa | 0 mm | 0 m/s | 15 W/m² | - |
| 1778263755 | 13.89° C | 63% | 1014.6 hPa | 0 mm | 0.45 m/s, 243° | 15 W/m² | - |
| 1778263694 | 13.89° C | 63% | 1014.6 hPa | 0 mm | 0 m/s | 16 W/m² | - |
| 1778263633 | 13.89° C | 62% | 1014.6 hPa | 0 mm | 0 m/s | 16 W/m² | - |
| 1778263572 | 13.89° C | 62% | 1014.5 hPa | 0 mm | 0 m/s | 17 W/m² | - |
| 1778263511 | 13.89° C | 62% | 1014.5 hPa | 0 mm | 0 m/s | 17 W/m² | - |
| 1778263450 | 13.89° C | 61% | 1014.4 hPa | 0 mm | 0.45 m/s, 218° | 18 W/m² | - |
| 1778263389 | 13.89° C | 61% | 1014.6 hPa | 0 mm | 0.45 m/s, 240° | 18 W/m² | - |
| 1778263328 | 13.89° C | 61% | 1014.6 hPa | 0 mm | 0.45 m/s, 233° | 19 W/m² | - |
| 1778263267 | 13.89° C | 61% | 1014.5 hPa | 0 mm | 0 m/s | 19 W/m² | - |
| 1778263206 | 14.44° C | 60% | 1014.3 hPa | 0 mm | 0 m/s | 20 W/m² | - |
| 1778263145 | 14.44° C | 60% | 1014.4 hPa | 0 mm | 0.45 m/s, 261° | 20 W/m² | - |
| 1778263085 | 14.44° C | 60% | 1014.4 hPa | 0 mm | 0 m/s | 21 W/m² | - |
| 1778263023 | 14.44° C | 59% | 1014.5 hPa | 0 mm | 0.45 m/s, 232° | 21 W/m² | - |
| 1778262962 | 14.44° C | 58% | 1014.4 hPa | 0 mm | 0.45 m/s, 233° | 22 W/m² | - |
| 1778262901 | 15° C | 58% | 1014.3 hPa | 0 mm | 0.45 m/s, 232° | 23 W/m² | - |
| 1778262841 | 15° C | 58% | 1014.4 hPa | 0 mm | 0.45 m/s, 235° | 26 W/m² | - |
| 1778262779 | 15° C | 58% | 1014.3 hPa | 0 mm | 0 m/s | 27 W/m² | - |
| 1778262718 | 15° C | 57% | 1014.4 hPa | 0 mm | 0.45 m/s, 231° | 26 W/m² | - |
| 1778262658 | 15° C | 57% | 1014.5 hPa | 0 mm | 0.45 m/s, 225° | 26 W/m² | - |
| 1778262597 | 15° C | 57% | 1014.4 hPa | 0 mm | 0 m/s | 31 W/m² | - |
| 1778262535 | 15° C | 57% | 1014.2 hPa | 0 mm | 0.45 m/s, 245° | 32 W/m² | - |
* Rain latest hour (hover to see other rain measurements)
** Current wind speed in m/s (hover to see current wind gust speed)